Stations météo

réclame
Mon MeteoGroup
Lugo/Rozas, Espagne (8008): Température de l'air & dewpoint: 14.01.2018 00:00:00 - 20.01.2018 00:00:00 (CET)Lugo/Rozas, Espagne (8008): Vitesse du vent: 14.01.2018 00:00:00 - 20.01.2018 00:00:00 (CET)Lugo/Rozas, Espagne (8008): Direction du vent: 14.01.2018 00:00:00 - 20.01.2018 00:00:00 (CET)Lugo/Rozas, Espagne (8008): reduced air pressure: 14.01.2018 00:00:00 - 20.01.2018 00:00:00 (CET)Lugo/Rozas, Espagne (8008): visibility: 14.01.2018 00:00:00 - 20.01.2018 00:00:00 (CET)Lugo/Rozas, Espagne (8008): Quantités de précipitations: 14.01.2018 00:00:00 - 20.01.2018 00:00:00 (CET)
Date & Time tt [°C] td [°C] ff [km/h] ff [knt] dd ppp [hPa] vv [km] rr [mm]
20.01.2018 00:00:00 - - - - - - - -
19.01.2018 23:00:00 4,3 2,8 4 2 S 1030,4 12 0,0
19.01.2018 22:00:00 5,8 4,4 2 1 S 1030,0 19 -
19.01.2018 21:00:00 5,6 4,2 4 2 S 1029,9 20 0,0
19.01.2018 20:00:00 6,2 4,0 4 2 SSE 1029,5 20 0,0
19.01.2018 19:00:00 8,3 4,5 4 2 SSE 1028,7 20 -
19.01.2018 18:00:00 11,1 5,2 2 1 NW 1027,2 20 0,0
19.01.2018 17:00:00 12,0 4,7 4 2 NW 1026,7 20 0,0
19.01.2018 16:00:00 12,1 4,8 4 2 WNW 1026,4 19 -
19.01.2018 15:00:00 12,0 5,2 4 2 NNE 1026,3 20 0,0
19.01.2018 14:00:00 11,2 4,9 5 3 N 1027,2 20 0,0
19.01.2018 13:00:00 10,7 4,8 8 4 NNW 1027,8 25 -
19.01.2018 12:00:00 10,0 5,8 5 3 N 1027,4 20 0,0
19.01.2018 11:00:00 8,6 7,1 5 3 NW 1027,0 20 0,0
19.01.2018 10:00:00 8,2 7,8 4 2 WSW 1027,0 15 -
19.01.2018 09:00:00 8,3 7,5 5 3 SW 1026,0 19 0,2
19.01.2018 08:00:00 8,1 7,5 5 3 SSW 1025,4 17 0,0
19.01.2018 07:00:00 8,0 7,4 8 4 SSW 1024,7 15 -
19.01.2018 06:00:00 8,0 7,2 8 4 SW 1024,8 16 0,0
19.01.2018 05:00:00 8,0 7,2 5 3 S 1024,8 14 0,0
19.01.2018 04:00:00 8,2 7,4 4 2 SSW 1025,3 13 -
19.01.2018 03:00:00 8,2 7,4 5 3 S 1025,4 7 0,0
19.01.2018 02:00:00 8,1 7,3 4 2 SW 1025,6 19 0,0
19.01.2018 01:00:00 8,1 7,2 5 3 SSW 1025,7 20 -
19.01.2018 00:00:00 8,3 7,1 4 2 SSW 1025,9 20 0,0
18.01.2018 23:00:00 8,2 6,8 2 1 SW 1025,8 20 0,0
18.01.2018 22:00:00 8,1 6,9 4 2 SSW 1026,1 18 -
18.01.2018 21:00:00 8,2 6,8 2 1 W 1026,0 16 0,0
18.01.2018 20:00:00 8,5 7,0 5 3 SW 1025,9 20 0,0
18.01.2018 19:00:00 8,5 7,0 2 1 SW 1025,7 19 -
18.01.2018 18:00:00 8,5 6,8 5 3 SSW 1025,3 18 0,0
18.01.2018 17:00:00 8,7 6,7 5 3 SW 1025,4 19 0,0
18.01.2018 16:00:00 8,5 6,3 5 3 SW 1025,5 15 -
18.01.2018 15:00:00 8,4 6,0 5 3 WSW 1026,0 20 0,0
18.01.2018 14:00:00 8,4 6,2 8 4 W 1026,2 20 0,0
18.01.2018 13:00:00 7,0 5,5 9 5 WSW 1027,5 25 -
18.01.2018 12:00:00 6,1 5,8 8 4 SSW 1028,1 19 0,0
18.01.2018 11:00:00 3,7 3,7 5 3 SSW 1028,6 11 0,0
18.01.2018 10:00:00 -0,4 -0,5 8 4 SE 1029,4 12 -
18.01.2018 09:00:00 -1,4 -2,2 2 1 E 1029,4 12 0,0
18.01.2018 08:00:00 -0,9 -1,6 2 1 SSE 1028,7 11 0,0
18.01.2018 07:00:00 -1,1 -1,8 2 1 SE 1028,8 12 -
18.01.2018 06:00:00 -0,6 -1,3 2 1 S 1029,2 2,7 0,0
18.01.2018 05:00:00 -0,1 -0,8 0 0 N 1029,3 6 0,0
18.01.2018 04:00:00 0,7 -0,2 2 1 S 1029,7 8 -
18.01.2018 03:00:00 0,7 0,1 4 2 S 1029,9 10 0,0
18.01.2018 02:00:00 0,7 0,0 2 1 S 1030,8 7 0,0
18.01.2018 01:00:00 0,8 -0,1 2 1 S 1031,6 - -
18.01.2018 00:00:00 1,2 0,2 4 2 SSE 1031,6 8 0,0
17.01.2018 23:00:00 1,7 0,5 4 2 SSE 1031,7 10 0,0
17.01.2018 22:00:00 2,2 1,0 4 2 SSE 1031,5 10 -
17.01.2018 21:00:00 3,1 1,6 4 2 SSE 1031,0 11 0,0
17.01.2018 20:00:00 4,5 2,4 4 2 SSE 1030,8 11 0,0
17.01.2018 19:00:00 6,6 3,4 4 2 SSE 1030,5 16 -
17.01.2018 18:00:00 9,4 3,8 2 1 NNW 1029,8 20 0,0
17.01.2018 17:00:00 10,5 4,2 4 2 NW 1029,8 20 0,0
17.01.2018 16:00:00 10,3 4,9 5 3 N 1030,4 19 -
17.01.2018 15:00:00 10,0 5,2 5 3 N 1030,4 20 0,0
17.01.2018 14:00:00 9,4 6,7 2 1 N 1031,5 17 0,0
17.01.2018 13:00:00 9,1 5,6 4 2 NNW 1032,1 25 -
17.01.2018 12:00:00 8,9 6,5 5 3 W 1032,4 17 0,0
17.01.2018 11:00:00 7,7 6,0 2 1 S 1032,5 15 0,0
17.01.2018 10:00:00 7,0 6,3 2 1 SSE 1032,2 15 -
17.01.2018 09:00:00 6,8 5,9 2 1 SSE 1031,7 11 0,0
17.01.2018 08:00:00 7,0 5,9 0 0 N 1031,2 11 0,0
17.01.2018 07:00:00 6,9 6,0 2 1 SSW 1031,0 15 -
17.01.2018 06:00:00 6,7 6,0 2 1 SSW 1030,9 9 0,0
17.01.2018 05:00:00 7,4 6,0 4 2 SW 1030,5 12 0,2
17.01.2018 04:00:00 7,8 7,0 5 3 W 1030,6 18 -
17.01.2018 03:00:00 8,1 7,3 2 1 WSW 1029,9 17 0,0
17.01.2018 02:00:00 8,3 7,4 5 3 W 1030,0 20 0,0
17.01.2018 01:00:00 9,3 8,7 8 4 WSW 1029,5 6 -
17.01.2018 00:00:00 9,5 8,7 11 6 W 1029,0 20 0,0
16.01.2018 23:00:00 10,0 9,1 8 4 WSW 1028,8 20 0,2
16.01.2018 22:00:00 10,4 9,9 13 7 WSW 1028,3 - -
16.01.2018 21:00:00 10,5 9,7 15 8 SW 1028,1 8 0,0
16.01.2018 20:00:00 11,0 9,6 18 10 SW 1027,8 12 0,0
16.01.2018 19:00:00 11,3 9,7 16 9 SW 1027,4 20 -
16.01.2018 18:00:00 11,6 9,7 16 9 WSW 1026,9 20 0,0
16.01.2018 17:00:00 12,0 9,9 16 9 SW 1026,5 20 0,0
16.01.2018 16:00:00 11,8 10,0 16 9 SW 1026,9 20 -
16.01.2018 15:00:00 11,9 10,3 13 7 SW 1027,6 20 0,0
16.01.2018 14:00:00 11,7 10,3 15 8 WSW 1028,1 17 0,0
16.01.2018 13:00:00 11,5 10,1 13 7 SW 1028,7 20 -
16.01.2018 12:00:00 10,9 9,8 11 6 SSW 1028,9 20 0,0
16.01.2018 11:00:00 10,4 9,5 11 6 SW 1029,0 20 0,0
16.01.2018 10:00:00 10,0 9,4 11 6 SW 1028,8 15 -
16.01.2018 09:00:00 10,0 9,2 11 6 SW 1028,5 20 0,0
16.01.2018 08:00:00 9,8 9,0 9 5 SSW 1027,7 20 0,0
16.01.2018 07:00:00 9,7 8,9 9 5 SSW 1027,5 15 -
16.01.2018 06:00:00 9,3 8,8 9 5 SW 1027,5 17 0,0
16.01.2018 05:00:00 8,9 8,4 8 4 SSW 1027,8 6 0,0
16.01.2018 04:00:00 8,9 8,4 11 6 SSW 1027,5 12 -
16.01.2018 03:00:00 8,7 8,2 11 6 SSW 1027,4 10 0,0
16.01.2018 02:00:00 8,6 7,8 13 7 SSW 1027,5 17 0,0
16.01.2018 01:00:00 8,4 7,6 13 7 SSW 1027,9 10 -
16.01.2018 00:00:00 8,2 7,4 13 7 SSW 1027,8 7 0,0
15.01.2018 23:00:00 7,7 6,8 9 5 S 1027,4 4,8 0,0
15.01.2018 22:00:00 7,5 6,6 9 5 SSW 1027,2 17 -
15.01.2018 21:00:00 7,3 6,4 13 7 S 1026,9 17 0,0
15.01.2018 20:00:00 6,5 5,8 13 7 SSW 1026,8 7 0,2
15.01.2018 19:00:00 6,1 5,2 11 6 SSW 1026,9 6 -
15.01.2018 18:00:00 5,8 4,8 9 5 SSW 1026,7 8 0,0
15.01.2018 17:00:00 6,2 4,4 9 5 S 1026,9 7 0,0
15.01.2018 16:00:00 7,0 3,6 9 5 SSW 1026,4 20 -
15.01.2018 15:00:00 6,8 3,2 13 7 S 1026,7 20 0,0
15.01.2018 14:00:00 6,6 2,7 15 8 SSW 1027,4 20 0,0
15.01.2018 13:00:00 5,8 2,3 15 8 SSW 1028,4 25 -
15.01.2018 12:00:00 5,3 2,1 13 7 SW 1028,9 20 0,0
15.01.2018 11:00:00 4,3 1,8 9 5 SSW 1028,6 20 0,0
15.01.2018 10:00:00 2,6 1,9 8 4 SSE 1028,7 25 -
15.01.2018 09:00:00 1,2 1,1 8 4 SSW 1028,7 20 0,0
15.01.2018 08:00:00 -1,9 -2,7 2 1 N 1028,8 12 0,0
15.01.2018 07:00:00 -1,4 -2,1 2 1 E 1028,5 15 -
15.01.2018 06:00:00 -1,5 -2,2 2 1 SSW 1028,1 11 0,0
15.01.2018 05:00:00 -1,7 -2,3 0 0 N 1028,1 9 0,0
15.01.2018 04:00:00 -1,6 -2,4 0 0 N 1028,2 1,1 -
15.01.2018 03:00:00 -1,4 -2,1 2 1 ENE 1028,1 2,5 0,0
15.01.2018 02:00:00 -1,0 -1,7 2 1 N 1028,0 6 0,0
15.01.2018 01:00:00 -0,6 -1,4 4 2 S 1028,1 11 -
15.01.2018 00:00:00 -0,3 -1,3 2 1 S 1028,3 13 0,0
14.01.2018 23:00:00 0,3 -0,8 4 2 SSE 1027,4 12 0,0
14.01.2018 22:00:00 1,3 0,0 4 2 SSE 1026,3 15 -
14.01.2018 21:00:00 2,3 0,7 2 1 SSE 1025,6 17 0,0
14.01.2018 20:00:00 4,3 2,2 4 2 SE 1024,6 16 0,0
14.01.2018 19:00:00 6,9 4,0 2 1 SSW 1023,5 20 -
14.01.2018 18:00:00 7,6 3,8 8 4 ENE 1022,6 20 0,0
14.01.2018 17:00:00 8,5 2,9 2 1 ENE 1021,5 20 0,0
14.01.2018 16:00:00 8,2 3,6 4 2 SE 1021,0 20 -
14.01.2018 15:00:00 8,2 4,2 4 2 NE 1020,8 20 0,0
14.01.2018 14:00:00 7,5 4,1 4 2 NW 1021,3 20 0,0
14.01.2018 13:00:00 8,4 4,2 2 1 WSW 1021,6 20 -
14.01.2018 12:00:00 6,6 4,3 8 4 SW 1022,0 20 0,0
14.01.2018 11:00:00 4,6 3,7 2 1 N 1022,0 20 0,0
14.01.2018 10:00:00 2,6 2,0 4 2 NE 1021,7 7 -
14.01.2018 09:00:00 2,9 2,3 4 2 S 1021,2 14 0,0
14.01.2018 08:00:00 3,2 2,2 4 2 SE 1020,4 20 0,2
14.01.2018 07:00:00 3,9 3,0 4 2 SSW 1020,1 20 -
14.01.2018 06:00:00 3,6 2,9 4 2 S 1019,9 20 0,0
14.01.2018 05:00:00 3,7 2,8 8 4 SW 1020,1 19 0,0
14.01.2018 04:00:00 4,0 3,0 9 5 SW 1019,8 20 -
14.01.2018 03:00:00 3,9 2,9 8 4 SW 1019,4 17 0,0
14.01.2018 02:00:00 4,1 3,1 9 5 SW 1019,5 20 0,2
14.01.2018 01:00:00 4,1 2,9 5 3 SSW 1019,8 20 -
14.01.2018 00:00:00 3,6 2,4 9 5 SW 1019,6 20 0,0

tt = Température de l'air
td = dewpoint
ff = Vitesse du vent
dd = Direction du vent
ppp = reduced air pressure
vv = visibility
rr = Quantités de précipitations

stations d'obs. à proximité